STARLINK-32447, 61261

Orbit data source: Space-Track

STARLINK-32447, 61261 is a payload satellite owned by SpaceX/Seattle (US) in LEO that was launched on Wed, 25 Sep 2024 UTC via an FALCON 9 launch vehicle from the Air Force Western Test Range (AFWTR). Payload-class satellites include a variety of spacecraft equipped with specific instruments for various scientific and technological missions. These include communications satellites like Starlink; space stations such as the ISS; scientific satellites like the Hubble; Earth observation satellites from companies like Planet Labs, Umbra, and HawkEye 360; GPS; miniature CubeSats for education and research; and military/defense satellites.

Loading next visibility...
Identifier
61261, 2024-175U
Orbit
LEO
Country
Flag of USUS
Related business
Manufacturer
SpaceX/Seattle
Mission
Operational spacecraft
Bus & Motor
STARLINK V2M, Unknown motor
Mass
730 kg wet, ~700 kg dry
Launch date (UTC)
2024-09-25 (1 year ago)
Launch vehicle
FALCON 9
Launch site
Air Force Western Test Range (AFWTR)
Object type
Payload
Rocket body
Debris
Shape & HBR
Unknown shape, 17.7 m
Radar Cross Section
Large (>1 m²)

Expand to show TLE details & history
Last TLE update: 1 day ago

TLE from 1 day ago
0 STARLINK-32447
1 61261U 24175U   25300.83667377  .00001463  00000-0  61520-4 0  9994
2 61261  53.1594  91.0949 0001131  75.5796 284.5330 15.30196065 61112
Epoch: 2025-10-27T20:04Z
TLE epoch observation values (Epoch: 2025-10-27T20:04:48.613Z)
Latitude
-0.00005°
Longitude
113.45951°
Altitude
475.932 km
Speed
7.629 km/s
True Right ascension
06h 04m 22s
True Declination
0° 00' 00"
Sunlit
Object was in full shadow at epoch
Visualization orbit readout
Latitude
Unknown
Longitude
Unknown
Altitude
Unknown
Speed
Unknown
Apparent Right ascension
Unknown
Apparent Declination
Unknown
Sunlit
N/A
Visualization observer readout
Local Sidereal Time
00:01:39
Azimuth
Unknown
Elevation
Unknown
Doppler factor
Unknown
Orbital elements
Apogee altitude
476.258 km
Perigee altitude
474.708 km
Semi-major axis
6,853.62 km
Eccentricity
0.00011
Inclination
53.1594°
RAAN
91.0949°
Arg. of periapsis
75.5796°
True anomaly
284.52045°
Mean anomaly
284.533°
Eccentric anomaly
284.52673°
Mean motion
3.82528 °/min
Orbital period
94.11 mins
BSTAR
0.00006152
Loading maneuver chart data...
Computing Atmospheric mass density...
Loading historical data...
Loading historical data...
Loading historical data...
Loading historical data...
Loading historical data...
Loading historical data...
Loading historical data...

Documentation

Showing up to 5 results
|